#timestamp,LO_Frequency,Hit,StdDev 
1642078815.8,286046996.9,Y
1642078835.6,286046999.2,P
1642078855.4,286046999.0,P
1642078875.3,286047000.8,P
1642078895.1,286047000.3,N
1642078915.9,286046999.7,N
1642078935.7,286047000.5,N
1642078955.5,286047000.1,N
1642078975.4,286047002.8,Y
1642078995.2,286047000.0,P
1642079015.1,286047000.1,N
1642079016.0,286047000.1,N
1642079035.8,286047000.2,N
1642079055.7,286047002.7,Y
1642079075.5,286047000.2,P
1642079095.3,286047000.6,P
1642079115.2,286047001.7,P
1642079135.0,286047002.0,Y
1642079135.9,286047002.0,P
1642079155.8,286047002.6,P
1642079175.6,286047002.0,N
1642079195.4,286047000.2,N
1642079215.3,286047000.3,N
1642079235.1,286046999.7,N
1642079255.8,286047000.5,N
1642079275.7,286046999.7,N
1642079295.5,286046999.8,N
1642079315.4,286047001.0,N
1642079335.2,286047000.1,N
1642079355.0,286046999.9,N
1642079355.9,286046999.9,N
1642079375.8,286046998.5,N
1642079395.6,286047000.6,N
1642079415.4,286047000.7,N
1642079435.3,286046999.9,N
1642079455.1,286047001.2,N
1642079475.9,286046998.4,N
1642079495.7,286046998.5,N
1642079515.5,286046999.4,N
1642079535.4,286047000.9,N
1642079555.2,286046998.2,N
1642079575.0,286047000.8,N
1642079576.0,286047000.8,N
1642079595.8,286047000.5,N
1642079615.6,286046998.5,N
1642079635.5,286046999.6,N
1642079655.3,286047000.9,N
1642079675.1,286046998.7,N
1642079695.9,286046998.6,N
1642079715.7,286046998.5,N
1642079735.6,286047000.7,N
1642079755.4,286047005.6,Y
1642079775.2,286047016.9,P
1642079795.1,286047018.8,N
1642079796.0,286047018.8,N
1642079815.8,286047017.9,N
1642079835.6,286047016.7,N
1642079855.5,286047013.4,N
1642079875.3,286047012.4,N
1642079895.2,286047008.7,N
1642079915.9,286047006.3,N
1642079935.7,286047007.1,N
1642079955.6,286047005.9,N
1642079975.4,286047007.2,N
1642079995.2,286047014.3,N
1642080015.1,286047015.1,N
1642080016.0,286047015.1,N
1642080035.8,286047011.4,N
1642080055.7,286047006.8,N
1642080075.5,286047005.9,N
1642080095.3,286047003.4,N
1642080115.2,286047002.9,N
1642080135.0,286047004.4,N
1642080135.9,286047004.4,N
1642080155.8,286047001.9,N
1642080175.6,286047000.2,N
1642080195.4,286047001.8,N
1642080215.3,286047001.5,N
1642080235.1,286047001.4,N
1642080255.8,286047002.8,N
1642080275.7,286047002.4,N
1642080295.5,286047001.0,N
1642080315.4,286047000.9,N
1642080335.2,286047000.8,N
1642080355.0,286047001.2,N
1642080355.9,286047001.2,N
1642080375.8,286046999.5,N
1642080395.6,286046999.3,N
1642080415.4,286046999.0,N
1642080435.3,286046997.1,N
1642080455.1,286046996.5,N
1642080475.9,286046996.6,N
1642080495.7,286046999.5,N
1642080515.5,286046998.9,N
1642080535.4,286046999.1,N
1642080555.2,286046997.0,N
1642080575.0,286046996.5,N
1642080575.9,286046996.5,N
1642080595.8,286046996.7,N
1642080615.6,286046999.1,N
1642080635.5,286046999.3,N
1642080655.3,286046996.6,N
1642080675.1,286046999.3,N
1642080695.9,286046998.9,N
1642080715.7,286046998.4,N
1642080735.6,286046999.0,N
1642080755.4,286046996.9,N
1642080775.2,286046996.8,N
1642080795.1,286046997.6,N
1642080796.0,286046997.6,N
1642080815.8,286046994.9,Y
1642080835.6,286046997.2,P
1642080855.5,286046997.3,P
1642080875.3,286046997.8,P
1642080895.2,286046998.0,Y
1642080915.9,286047001.1,P
1642080935.7,286046998.4,N
1642080955.6,286047001.2,N
1642080975.4,286046998.1,N
1642080995.2,286047001.0,N
1642081015.1,286046998.3,N
1642081016.0,286046998.3,N
1642081035.8,286046999.9,N
1642081055.7,286046999.9,N
1642081075.5,286047000.2,N
1642081095.3,286047000.8,N
1642081115.2,286047000.1,N
1642081135.0,286047000.6,N
1642081135.9,286047000.6,N
1642081155.8,286046999.9,N
1642081175.6,286047000.0,N
1642081195.4,286047000.2,N
1642081215.3,286047000.1,N
1642081235.1,286047000.0,N
1642081255.9,286047002.1,N
1642081275.7,286047002.4,N
1642081295.5,286047002.8,N
1642081315.4,286047002.7,N
1642081335.2,286047000.2,N
1642081355.0,286047000.2,N
1642081355.9,286047000.2,N
1642081375.8,286047000.8,N
1642081395.6,286047000.7,N
1642081415.5,286046998.1,N
1642081435.3,286046998.2,N
1642081455.1,286046998.3,N
1642081475.9,286047000.4,N
1642081495.7,286047002.7,N
1642081515.5,286046999.9,N
1642081535.4,286046999.7,N
1642081555.2,286047001.5,N
1642081575.1,286047003.7,N
1642081576.0,286047003.7,N
1642081595.8,286047003.6,N
1642081615.6,286047003.9,N
1642081635.5,286047002.7,N
1642081655.3,286047001.7,N
1642081675.2,286047002.7,N
1642081695.9,286047000.1,N
1642081715.7,286047002.1,N
1642081735.6,286047002.4,N
1642081755.4,286047001.9,N
1642081775.2,286047002.5,N
1642081795.1,286047002.5,N
1642081796.0,286047002.5,N
1642081815.8,286047002.6,N
1642081835.7,286047002.0,N
1642081855.5,286047002.7,N
1642081875.4,286047002.4,N
1642081895.2,286047000.4,N
1642081915.0,286047002.7,N
1642081915.9,286047002.7,N
1642081935.8,286047000.1,N
1642081955.6,286047000.9,N
1642081975.5,286047000.0,N
1642081995.3,286046998.5,N
1642082015.1,286047001.1,N
1642082035.9,286046998.1,N
1642082055.7,286047002.3,N
1642082075.6,286047000.9,N
1642082095.4,286047002.7,N
1642082115.2,286047004.0,N
1642082135.1,286047001.5,N
1642082136.0,286047001.5,N
1642082155.8,286047001.6,N
1642082175.7,286047002.0,N
1642082195.5,286047002.5,N
1642082215.3,286047000.2,N
1642082235.2,286047002.4,N
1642082255.0,286047001.6,N
1642082255.9,286047001.6,N
1642082275.8,286047001.9,N
1642082295.6,286047004.2,Y
1642082315.4,286047000.5,P
1642082335.3,286047001.0,N
1642082355.1,286046998.4,P
1642082375.9,286047000.6,N
1642082395.7,286047000.9,N
